Greenville Downtown, SC

12:11 PM EDT on July 22, 2017 (GMT -0400)
Greenville Downtown

Weather History for KGMU - June, 2012

Change the Weather History Date:

Friday, June 1, 2012

  Actual Average Record
Temperature  
Mean Temperature 72 °F -  
Max Temperature 81 °F 80 °F 96 °F (2011)
Min Temperature 64 °F 61 °F 55 °F (2005)
Cooling Degree Days 7    
Growing Degree Days 22 (Base 50)    
Moisture  
Dew Point 63 °F    
Average Humidity 77    
Maximum Humidity 100    
Minimum Humidity 54    
Precipitation  
Precipitation 0.04 in - - ()
Sea Level Pressure  
Sea Level Pressure 29.81 in    
Wind  
Wind Speed 9 mph (SW)    
Max Wind Speed 21 mph    
Max Gust Speed 33 mph    
Visibility 10 miles    
Events Rain , Thunderstorm    
Averages and records for this station are not official NWS values.
T = Trace of Precipitation, MM = Missing Value Source: NWS Daily Summary

Daily Weather History Graph

Daily Weather History Graph

Search for Another Location

Airport or City:

Trip Planner

Search our weather history database for the weather conditions in past years. The results will help you decide how hot, cold, wet, or windy it might be!

Date:

Astronomy

Jun. 01, 2012 Rise Set
Actual Time 6:16 AM EDT 8:38 PM EDT
Civil Twilight 5:47 AM EDT 9:07 PM EDT
Nautical Twilight 5:11 AM EDT 9:43 PM EDT
Astronomical Twilight 4:32 AM EDT 10:22 PM EDT
Moon 5:43 PM EDT (6/1) 3:45 AM EDT (6/1)
Length of Visible Light 15h 19m
Length of Day
14h 21m
Waxing Gibbous, 89% of the Moon is Illuminated
Jun 1
Waxing Gibbous
Jun 4
Full
Jun 11
Last Quarter
Jun 19
New
Jun 26
First Quarter

Hourly Weather History & Observations

Time (EDT) Temp. Heat Index Dew Point Humidity Pressure Visibility Wind Dir Wind Speed Gust Speed Precip Events Conditions
12:53 AM 71.1 °F - 62.1 °F 73% 29.87 in 10.0 mi SSW 18.4 mph 25.3 mph 0.00 in Rain Light Rain
1:53 AM 68.0 °F - 62.1 °F 81% 29.85 in 10.0 mi WSW 8.1 mph - 0.01 in Rain Light Rain
2:53 AM 68.0 °F - 62.1 °F 81% 29.81 in 10.0 mi WNW 4.6 mph - 0.00 in   Mostly Cloudy
3:53 AM 66.9 °F - 63.0 °F 87% 29.81 in 10.0 mi Calm Calm - N/A   Scattered Clouds
4:24 AM 66.2 °F - 62.6 °F 88% 29.86 in 10.0 mi SSW 9.2 mph - N/A   Overcast
4:53 AM 66.0 °F - 64.0 °F 93% 29.80 in 6.0 mi SSE 3.5 mph - 0.03 in Rain Light Rain
5:53 AM 66.0 °F - 64.0 °F 93% 29.81 in 8.0 mi SSW 4.6 mph - 0.00 in   Mostly Cloudy
6:16 AM 64.4 °F - 64.4 °F 100% 29.83 in 9.0 mi Calm Calm - N/A   Scattered Clouds
6:53 AM 66.0 °F - 64.0 °F 93% 29.80 in 9.0 mi SSW 3.5 mph - N/A   Clear
7:53 AM 66.9 °F - 64.0 °F 90% 29.82 in 10.0 mi SSW 5.8 mph - N/A   Clear
8:22 AM 68.0 °F - 64.4 °F 88% 29.85 in 10.0 mi SW 6.9 mph - N/A   Mostly Cloudy
8:53 AM 68.0 °F - 64.0 °F 87% 29.83 in 10.0 mi SSW 6.9 mph - N/A   Overcast
9:38 AM 69.8 °F - 64.4 °F 83% 29.86 in 10.0 mi SSW 10.4 mph - N/A   Mostly Cloudy
10:53 AM 70.0 °F - 64.9 °F 84% 29.83 in 9.0 mi SSW 9.2 mph - N/A   Overcast
11:16 AM 71.6 °F - 64.4 °F 78% 29.85 in 10.0 mi SSW 10.4 mph 17.3 mph N/A   Mostly Cloudy
11:23 AM 71.6 °F - 64.4 °F 78% 29.85 in 10.0 mi SSW 11.5 mph - N/A   Mostly Cloudy
11:43 AM 73.4 °F - 64.4 °F 73% 29.86 in 10.0 mi SW 9.2 mph - N/A   Overcast
11:53 AM 72.0 °F - 64.0 °F 76% 29.82 in 10.0 mi SSW 9.2 mph - N/A   Overcast
12:33 PM 75.2 °F - 64.4 °F 69% 29.84 in 10.0 mi SW 11.5 mph - N/A   Mostly Cloudy
12:53 PM 73.9 °F - 63.0 °F 68% 29.81 in 10.0 mi SSW 15.0 mph 18.4 mph N/A   Mostly Cloudy
1:53 PM 77.0 °F - 64.9 °F 66% 29.78 in 10.0 mi SSW 8.1 mph - N/A   Scattered Clouds
2:53 PM 80.1 °F 81.5 °F 63.0 °F 56% 29.75 in 10.0 mi WSW 11.5 mph 21.9 mph N/A   Scattered Clouds
3:53 PM 79.0 °F - 61.0 °F 54% 29.74 in 10.0 mi WSW 12.7 mph 20.7 mph N/A   Overcast
4:31 PM 75.2 °F - 62.6 °F 65% 29.79 in 10.0 mi West 20.7 mph 33.4 mph 0.00 in Rain , Thunderstorm Light Thunderstorms and Rain
4:40 PM 71.6 °F - 64.4 °F 78% 29.78 in 10.0 mi WNW 11.5 mph 25.3 mph 0.00 in Rain Light Rain
4:53 PM 73.0 °F - 64.9 °F 76% 29.75 in 10.0 mi WSW 9.2 mph - 0.00 in   Mostly Cloudy
5:53 PM 75.0 °F - 63.0 °F 66% 29.75 in 10.0 mi West 11.5 mph - N/A   Scattered Clouds
7:53 PM 73.9 °F - 64.0 °F 71% 29.75 in 10.0 mi SW 6.9 mph - N/A   Clear
8:53 PM 71.1 °F - 59.0 °F 66% 29.76 in 10.0 mi West 4.6 mph - N/A   Clear
9:53 PM 70.0 °F - 57.0 °F 63% 29.78 in 10.0 mi WNW 4.6 mph - N/A   Clear
10:53 PM 66.9 °F - 57.9 °F 73% 29.81 in 10.0 mi North 3.5 mph - N/A   Clear
11:53 PM 64.9 °F - 55.0 °F 70% 29.83 in 10.0 mi North 4.6 mph - N/A   Clear